Year,Month,Day,Hour,Minute,Value (Times are PST for temperature in C)
2017,10,26,00,00,9.00
2017,10,26,00,01,9.00
2017,10,26,00,02,9.00
2017,10,26,00,03,9.00
2017,10,26,00,04,9.00
2017,10,26,00,05,9.00
2017,10,26,00,06,9.00
2017,10,26,00,07,9.00
2017,10,26,00,08,9.00
2017,10,26,00,09,9.00
2017,10,26,00,10,9.00
2017,10,26,00,11,9.00
2017,10,26,00,12,9.00
2017,10,26,00,13,9.00
2017,10,26,00,14,9.00
2017,10,26,00,15,9.00
2017,10,26,00,16,9.00
2017,10,26,00,17,9.00
2017,10,26,00,18,9.10
2017,10,26,00,19,9.10
2017,10,26,00,20,9.10
2017,10,26,00,21,9.10
2017,10,26,00,22,9.10
2017,10,26,00,23,9.10
2017,10,26,00,24,9.00
2017,10,26,00,25,9.00
2017,10,26,00,26,9.00
2017,10,26,00,27,9.10
2017,10,26,00,28,9.00
2017,10,26,00,29,9.00
2017,10,26,00,30,9.00
2017,10,26,00,31,9.10
2017,10,26,00,32,9.10
2017,10,26,00,33,9.10
2017,10,26,00,34,9.10
2017,10,26,00,35,9.10
2017,10,26,00,36,9.10
2017,10,26,00,37,9.10
2017,10,26,00,38,9.10
2017,10,26,00,39,9.10
2017,10,26,00,40,9.10
2017,10,26,00,41,9.10
2017,10,26,00,42,9.10
2017,10,26,00,43,9.10
2017,10,26,00,44,9.10
2017,10,26,00,45,9.10
2017,10,26,00,46,9.20
2017,10,26,00,47,9.10
2017,10,26,00,48,9.20
2017,10,26,00,49,9.20
2017,10,26,00,50,9.20
2017,10,26,00,51,9.20
2017,10,26,00,52,9.20
2017,10,26,00,53,9.20
2017,10,26,00,54,9.20
2017,10,26,00,55,9.20
2017,10,26,00,56,9.20
2017,10,26,00,57,9.30
2017,10,26,00,58,9.30
2017,10,26,00,59,9.30
2017,10,26,01,00,9.30
2017,10,26,01,01,9.30
2017,10,26,01,02,9.30
2017,10,26,01,03,9.30
2017,10,26,01,04,9.30
2017,10,26,01,05,9.30
2017,10,26,01,06,9.30
2017,10,26,01,07,9.40
2017,10,26,01,08,9.40
2017,10,26,01,09,9.40
2017,10,26,01,10,9.40
2017,10,26,01,11,9.40
2017,10,26,01,12,9.40
2017,10,26,01,13,9.40
2017,10,26,01,14,9.40
2017,10,26,01,15,9.40
2017,10,26,01,16,9.50
2017,10,26,01,17,9.50
2017,10,26,01,18,9.50
2017,10,26,01,19,9.50
2017,10,26,01,20,9.50
2017,10,26,01,21,9.50
2017,10,26,01,22,9.60
2017,10,26,01,23,9.60
2017,10,26,01,24,9.60
2017,10,26,01,25,9.60
2017,10,26,01,26,9.60
2017,10,26,01,27,9.60
2017,10,26,01,28,9.60
2017,10,26,01,29,9.60
2017,10,26,01,30,9.60
2017,10,26,01,31,9.60
2017,10,26,01,32,9.60
2017,10,26,01,33,9.70
2017,10,26,01,34,9.70
2017,10,26,01,35,9.70
2017,10,26,01,36,9.70
2017,10,26,01,37,9.70
2017,10,26,01,38,9.70
2017,10,26,01,39,9.70
2017,10,26,01,40,9.70
2017,10,26,01,41,9.80
2017,10,26,01,42,9.80
2017,10,26,01,43,9.80
2017,10,26,01,44,9.90
2017,10,26,01,45,9.90
2017,10,26,01,46,9.90
2017,10,26,01,47,10.00
2017,10,26,01,48,10.00
2017,10,26,01,49,10.10
2017,10,26,01,50,10.10
2017,10,26,01,51,10.10
2017,10,26,01,52,10.20
2017,10,26,01,53,10.20
2017,10,26,01,54,10.20
2017,10,26,01,55,10.20
2017,10,26,01,56,10.20
2017,10,26,01,57,10.20
2017,10,26,01,58,10.20
2017,10,26,01,59,10.30
2017,10,26,02,00,10.30
2017,10,26,02,01,10.30
2017,10,26,02,02,10.30
2017,10,26,02,03,10.30
2017,10,26,02,04,10.40
2017,10,26,02,05,10.40
2017,10,26,02,06,10.40
2017,10,26,02,07,10.50
2017,10,26,02,08,10.50
2017,10,26,02,09,10.50
2017,10,26,02,10,10.50
2017,10,26,02,11,10.60
2017,10,26,02,12,10.60
2017,10,26,02,13,10.60
2017,10,26,02,14,10.60
2017,10,26,02,15,10.60
2017,10,26,02,16,10.60
2017,10,26,02,17,10.60
2017,10,26,02,18,10.60
2017,10,26,02,19,10.60
2017,10,26,02,20,10.60
2017,10,26,02,21,10.60
2017,10,26,02,22,10.60
2017,10,26,02,23,10.60
2017,10,26,02,24,10.70
2017,10,26,02,25,10.70
2017,10,26,02,26,10.70
2017,10,26,02,27,10.70
2017,10,26,02,28,10.70
2017,10,26,02,29,10.70
2017,10,26,02,30,10.70
2017,10,26,02,31,10.70
2017,10,26,02,32,10.70
2017,10,26,02,33,10.70
2017,10,26,02,34,10.70
2017,10,26,02,35,10.70
2017,10,26,02,36,10.70
2017,10,26,02,37,10.70
2017,10,26,02,38,10.70
2017,10,26,02,39,10.70
2017,10,26,02,40,10.70
2017,10,26,02,41,10.70
2017,10,26,02,42,10.70
2017,10,26,02,43,10.70
2017,10,26,02,44,10.70
2017,10,26,02,45,10.70
2017,10,26,02,46,10.70
2017,10,26,02,47,10.70
2017,10,26,02,48,10.70
2017,10,26,02,49,10.70
2017,10,26,02,50,10.70
2017,10,26,02,51,10.70
2017,10,26,02,52,10.70
2017,10,26,02,53,10.70
2017,10,26,02,54,10.70
2017,10,26,02,55,10.70
2017,10,26,02,56,10.70
2017,10,26,02,57,10.70
2017,10,26,02,58,10.70
2017,10,26,02,59,10.70
2017,10,26,03,00,10.70
2017,10,26,03,01,10.70
2017,10,26,03,02,10.70
2017,10,26,03,03,10.70
2017,10,26,03,04,10.70
2017,10,26,03,05,10.70
2017,10,26,03,06,10.70
2017,10,26,03,07,10.70
2017,10,26,03,08,10.70
2017,10,26,03,09,10.70
2017,10,26,03,10,10.70
2017,10,26,03,11,10.70
2017,10,26,03,12,10.60
2017,10,26,03,13,10.60
2017,10,26,03,14,10.60
2017,10,26,03,15,10.60
2017,10,26,03,16,10.60
2017,10,26,03,17,10.60
2017,10,26,03,18,10.60
2017,10,26,03,19,10.60
2017,10,26,03,20,10.50
2017,10,26,03,21,10.50
2017,10,26,03,22,10.50
2017,10,26,03,23,10.40
2017,10,26,03,24,10.40
2017,10,26,03,25,10.40
2017,10,26,03,26,10.40
2017,10,26,03,27,10.40
2017,10,26,03,28,10.40
2017,10,26,03,29,10.40
2017,10,26,03,30,10.30
2017,10,26,03,31,10.30
2017,10,26,03,32,10.30
2017,10,26,03,33,10.30
2017,10,26,03,34,10.30
2017,10,26,03,35,10.30
2017,10,26,03,36,10.20
2017,10,26,03,37,10.20
2017,10,26,03,38,10.20
2017,10,26,03,39,10.20
2017,10,26,03,40,10.20
2017,10,26,03,41,10.20
2017,10,26,03,42,10.10
2017,10,26,03,43,10.10
2017,10,26,03,44,10.10
2017,10,26,03,45,10.10
2017,10,26,03,46,10.10
2017,10,26,03,47,10.10
2017,10,26,03,48,10.10
2017,10,26,03,49,10.10
2017,10,26,03,50,10.00
2017,10,26,03,51,10.00
2017,10,26,03,52,10.00
2017,10,26,03,53,10.00
2017,10,26,03,54,9.90
2017,10,26,03,55,9.90
2017,10,26,03,56,9.90
2017,10,26,03,57,9.90
2017,10,26,03,58,9.80
2017,10,26,03,59,9.80
2017,10,26,04,00,9.80
2017,10,26,04,01,9.80
2017,10,26,04,02,9.70
2017,10,26,04,03,9.70
2017,10,26,04,04,9.70
2017,10,26,04,05,9.60
2017,10,26,04,06,9.60
2017,10,26,04,07,9.60
2017,10,26,04,08,9.60
2017,10,26,04,09,9.50
2017,10,26,04,10,9.50
2017,10,26,04,11,9.40
2017,10,26,04,12,9.40
2017,10,26,04,13,9.30
2017,10,26,04,14,9.30
2017,10,26,04,15,9.30
2017,10,26,04,16,9.30
2017,10,26,04,17,9.20
2017,10,26,04,18,9.20
2017,10,26,04,19,9.20
2017,10,26,04,20,9.20
2017,10,26,04,21,9.20
2017,10,26,04,22,9.10
2017,10,26,04,23,9.10
2017,10,26,04,24,9.10
2017,10,26,04,25,9.10
2017,10,26,04,26,9.10
2017,10,26,04,27,9.10
2017,10,26,04,28,9.00
2017,10,26,04,29,9.00
2017,10,26,04,30,9.00
2017,10,26,04,31,8.90
2017,10,26,04,32,8.90
2017,10,26,04,33,8.90
2017,10,26,04,34,8.90
2017,10,26,04,35,8.80
2017,10,26,04,36,8.80
2017,10,26,04,37,8.80
2017,10,26,04,38,8.80
2017,10,26,04,39,8.80
2017,10,26,04,40,8.70
2017,10,26,04,41,8.70
2017,10,26,04,42,8.70
2017,10,26,04,43,8.70
2017,10,26,04,44,8.60
2017,10,26,04,45,8.60
2017,10,26,04,46,8.60
2017,10,26,04,47,8.60
2017,10,26,04,48,8.60
2017,10,26,04,49,8.60
2017,10,26,04,50,8.50
2017,10,26,04,51,8.50
2017,10,26,04,52,8.50
2017,10,26,04,53,8.50
2017,10,26,04,54,8.50
2017,10,26,04,55,8.50
2017,10,26,04,56,8.50
2017,10,26,04,57,8.50
2017,10,26,04,58,8.50
2017,10,26,04,59,8.50
2017,10,26,05,00,8.50
2017,10,26,05,01,8.50
2017,10,26,05,02,8.50
2017,10,26,05,03,8.50
2017,10,26,05,04,8.40
2017,10,26,05,05,8.40
2017,10,26,05,06,8.40
2017,10,26,05,07,8.40
2017,10,26,05,08,8.50
2017,10,26,05,09,8.50
2017,10,26,05,10,8.50
2017,10,26,05,11,8.50
2017,10,26,05,12,8.50
2017,10,26,05,13,8.60
2017,10,26,05,14,8.60
2017,10,26,05,15,8.60
2017,10,26,05,16,8.60
2017,10,26,05,17,8.60
2017,10,26,05,18,8.60
2017,10,26,05,19,8.60
2017,10,26,05,20,8.60
2017,10,26,05,21,8.60
2017,10,26,05,22,8.60
2017,10,26,05,23,8.70
2017,10,26,05,24,8.70
2017,10,26,05,25,8.70
2017,10,26,05,26,8.70
2017,10,26,05,27,8.70
2017,10,26,05,28,8.60
2017,10,26,05,29,8.60
2017,10,26,05,30,8.60
2017,10,26,05,31,8.60
2017,10,26,05,32,8.60
2017,10,26,05,33,8.60
2017,10,26,05,34,8.60
2017,10,26,05,35,8.60
2017,10,26,05,36,8.60
2017,10,26,05,37,8.60
2017,10,26,05,38,8.60
2017,10,26,05,39,8.60
2017,10,26,05,40,8.60
2017,10,26,05,41,8.60
2017,10,26,05,42,8.60
2017,10,26,05,43,8.60
2017,10,26,05,44,8.60
2017,10,26,05,45,8.60
2017,10,26,05,46,8.60
2017,10,26,05,47,8.60
2017,10,26,05,48,8.60
2017,10,26,05,49,8.60
2017,10,26,05,50,8.60
2017,10,26,05,51,8.60
2017,10,26,05,52,8.60
2017,10,26,05,53,8.60
2017,10,26,05,54,8.50
2017,10,26,05,55,8.50
2017,10,26,05,56,8.50
2017,10,26,05,57,8.50
2017,10,26,05,58,8.50
2017,10,26,05,59,8.50
2017,10,26,06,00,8.50
2017,10,26,06,01,8.50
2017,10,26,06,02,8.50
2017,10,26,06,03,8.50
2017,10,26,06,04,8.50
2017,10,26,06,05,8.40
2017,10,26,06,06,8.40
2017,10,26,06,07,8.40
2017,10,26,06,08,8.40
2017,10,26,06,09,8.40
2017,10,26,06,10,8.40
2017,10,26,06,11,8.40
2017,10,26,06,12,8.30
2017,10,26,06,13,8.30
2017,10,26,06,14,8.30
2017,10,26,06,15,8.30
2017,10,26,06,16,8.30
2017,10,26,06,17,8.30
2017,10,26,06,18,8.20
2017,10,26,06,19,8.20
2017,10,26,06,20,8.20
2017,10,26,06,21,8.20
2017,10,26,06,22,8.20
2017,10,26,06,23,8.20
2017,10,26,06,24,8.20
2017,10,26,06,25,8.20
2017,10,26,06,26,8.20
2017,10,26,06,27,8.20
2017,10,26,06,28,8.10
2017,10,26,06,29,8.10
2017,10,26,06,30,8.10
2017,10,26,06,31,8.10
2017,10,26,06,32,8.10
2017,10,26,06,33,8.10
2017,10,26,06,34,8.10
2017,10,26,06,35,8.00
2017,10,26,06,36,8.00
2017,10,26,06,37,8.00
2017,10,26,06,38,7.90
2017,10,26,06,39,7.90
2017,10,26,06,40,7.90
2017,10,26,06,41,7.80
2017,10,26,06,42,7.80
2017,10,26,06,43,7.80
2017,10,26,06,44,7.80
2017,10,26,06,45,7.80
2017,10,26,06,46,7.80
2017,10,26,06,47,7.80
2017,10,26,06,48,7.80
2017,10,26,06,49,7.80
2017,10,26,06,50,7.70
2017,10,26,06,51,7.70
2017,10,26,06,52,7.70
2017,10,26,06,53,7.70
2017,10,26,06,54,7.70
2017,10,26,06,55,7.70
2017,10,26,06,56,7.70
2017,10,26,06,57,7.70
2017,10,26,06,58,7.70
2017,10,26,06,59,7.70
2017,10,26,07,00,7.70
2017,10,26,07,01,7.60
2017,10,26,07,02,7.60
2017,10,26,07,03,7.60
2017,10,26,07,04,7.60
2017,10,26,07,05,7.60
2017,10,26,07,06,7.60
2017,10,26,07,07,7.60
2017,10,26,07,08,7.60
2017,10,26,07,09,7.60
2017,10,26,07,10,7.60
2017,10,26,07,11,7.60
2017,10,26,07,12,7.60
2017,10,26,07,13,7.50
2017,10,26,07,14,7.50
2017,10,26,07,15,7.50
2017,10,26,07,16,7.50
2017,10,26,07,17,7.50
2017,10,26,07,18,7.50
2017,10,26,07,19,7.50
2017,10,26,07,20,7.50
2017,10,26,07,21,7.40
2017,10,26,07,22,7.40
2017,10,26,07,23,7.40
2017,10,26,07,24,7.40
2017,10,26,07,25,7.40
2017,10,26,07,26,7.40
2017,10,26,07,27,7.40
2017,10,26,07,28,7.40
2017,10,26,07,29,7.40
2017,10,26,07,30,7.40
2017,10,26,07,31,7.40
2017,10,26,07,32,7.40
2017,10,26,07,33,7.40
2017,10,26,07,34,7.40
2017,10,26,07,35,7.40
2017,10,26,07,36,7.40
2017,10,26,07,37,7.40
2017,10,26,07,38,7.40
2017,10,26,07,39,7.40
2017,10,26,07,40,7.40
2017,10,26,07,41,7.30
2017,10,26,07,42,7.30
2017,10,26,07,43,7.30
2017,10,26,07,44,7.30
2017,10,26,07,45,7.30
2017,10,26,07,46,7.30
2017,10,26,07,47,7.30
2017,10,26,07,48,7.30
2017,10,26,07,49,7.30
2017,10,26,07,50,7.30
2017,10,26,07,51,7.30
2017,10,26,07,52,7.30
2017,10,26,07,53,7.30
2017,10,26,07,54,7.30
2017,10,26,07,55,7.30
2017,10,26,07,56,7.30
2017,10,26,07,57,7.30
2017,10,26,07,58,7.30
2017,10,26,07,59,7.30
2017,10,26,08,00,7.40
2017,10,26,08,01,7.40
2017,10,26,08,02,7.40
2017,10,26,08,03,7.40
2017,10,26,08,04,7.40
2017,10,26,08,05,7.40
2017,10,26,08,06,7.40
2017,10,26,08,07,7.40
2017,10,26,08,08,7.40
2017,10,26,08,09,7.40
2017,10,26,08,10,7.40
2017,10,26,08,11,7.50
2017,10,26,08,12,7.60
2017,10,26,08,13,7.60
2017,10,26,08,14,7.70
2017,10,26,08,15,7.70
2017,10,26,08,16,7.80
2017,10,26,08,17,7.80
2017,10,26,08,18,7.80
2017,10,26,08,19,7.90
2017,10,26,08,20,7.90
2017,10,26,08,21,7.90
2017,10,26,08,22,7.80
2017,10,26,08,23,7.80
2017,10,26,08,24,7.80
2017,10,26,08,25,7.80
2017,10,26,08,26,7.80
2017,10,26,08,27,7.80
2017,10,26,08,28,7.80
2017,10,26,08,29,7.80
2017,10,26,08,30,7.80
2017,10,26,08,31,7.80
2017,10,26,08,32,7.80
2017,10,26,08,33,7.80
2017,10,26,08,34,7.80
2017,10,26,08,35,7.80
2017,10,26,08,36,7.70
2017,10,26,08,37,7.70
2017,10,26,08,38,7.70
2017,10,26,08,39,7.70
2017,10,26,08,40,7.70
2017,10,26,08,41,7.70
2017,10,26,08,42,7.70
2017,10,26,08,43,7.70
2017,10,26,08,44,7.70
2017,10,26,08,45,7.70
2017,10,26,08,46,7.70
2017,10,26,08,47,7.70
2017,10,26,08,48,7.70
2017,10,26,08,49,7.70
2017,10,26,08,50,7.70
2017,10,26,08,51,7.70
2017,10,26,08,52,7.70
2017,10,26,08,53,7.70
2017,10,26,08,54,7.70
2017,10,26,08,55,7.70
2017,10,26,08,56,7.70
2017,10,26,08,57,7.70
2017,10,26,08,58,7.70
2017,10,26,08,59,7.70
2017,10,26,09,00,7.70
2017,10,26,09,01,7.70
2017,10,26,09,02,7.70
2017,10,26,09,03,7.70
2017,10,26,09,04,7.70
2017,10,26,09,05,7.70
2017,10,26,09,06,7.70
2017,10,26,09,07,7.70
2017,10,26,09,08,7.70
2017,10,26,09,09,7.80
2017,10,26,09,10,7.80
2017,10,26,09,11,7.80
2017,10,26,09,12,7.80
2017,10,26,09,13,7.80
2017,10,26,09,14,7.80
2017,10,26,09,15,7.80
2017,10,26,09,16,7.90
2017,10,26,09,17,7.90
2017,10,26,09,18,8.00
2017,10,26,09,19,8.00
2017,10,26,09,20,8.10
2017,10,26,09,21,8.20
2017,10,26,09,22,8.30
2017,10,26,09,23,8.40
2017,10,26,09,24,8.50
2017,10,26,09,25,8.60
2017,10,26,09,26,8.60
2017,10,26,09,27,8.70
2017,10,26,09,28,8.80
2017,10,26,09,29,8.80
2017,10,26,09,30,8.90
2017,10,26,09,31,9.00
2017,10,26,09,32,9.00
2017,10,26,09,33,9.10
2017,10,26,09,34,9.10
2017,10,26,09,35,9.20
2017,10,26,09,36,9.20
2017,10,26,09,37,9.30
2017,10,26,09,38,9.30
2017,10,26,09,39,9.30
2017,10,26,09,40,9.30
2017,10,26,09,41,9.40
2017,10,26,09,42,9.40
2017,10,26,09,43,9.40
2017,10,26,09,44,9.40
2017,10,26,09,45,9.40
2017,10,26,09,46,9.50
2017,10,26,09,47,9.50
2017,10,26,09,48,9.50
2017,10,26,09,49,9.60
2017,10,26,09,50,9.60
2017,10,26,09,51,9.70
2017,10,26,09,52,9.70
2017,10,26,09,53,9.80
2017,10,26,09,54,9.80
2017,10,26,09,55,9.90
2017,10,26,09,56,9.90
2017,10,26,09,57,10.00
2017,10,26,09,58,10.10
2017,10,26,09,59,10.10
2017,10,26,10,00,10.20
2017,10,26,10,01,10.20
2017,10,26,10,02,10.20
2017,10,26,10,03,10.30
2017,10,26,10,04,10.40
2017,10,26,10,05,10.40
2017,10,26,10,06,10.50
2017,10,26,10,07,10.60
2017,10,26,10,08,10.70
2017,10,26,10,09,10.70
2017,10,26,10,10,10.80
2017,10,26,10,11,10.80
2017,10,26,10,12,10.90
2017,10,26,10,13,10.90
2017,10,26,10,14,10.90
2017,10,26,10,15,10.90
2017,10,26,10,16,10.90
2017,10,26,10,17,10.90
2017,10,26,10,18,10.90
2017,10,26,10,19,10.90
2017,10,26,10,20,10.90
2017,10,26,10,21,10.90
2017,10,26,10,22,10.90
2017,10,26,10,23,10.80
2017,10,26,10,24,10.80
2017,10,26,10,25,10.80
2017,10,26,10,26,10.80
2017,10,26,10,27,10.70
2017,10,26,10,28,10.70
2017,10,26,10,29,10.70
2017,10,26,10,30,10.60
2017,10,26,10,31,10.60
2017,10,26,10,32,10.60
2017,10,26,10,33,10.60
2017,10,26,10,34,10.50
2017,10,26,10,35,10.50
2017,10,26,10,36,10.50
2017,10,26,10,37,10.50
2017,10,26,10,38,10.60
2017,10,26,10,39,10.60
2017,10,26,10,40,10.70
2017,10,26,10,41,10.70
2017,10,26,10,42,10.70
2017,10,26,10,43,10.70
2017,10,26,10,44,10.70
2017,10,26,10,45,10.80
2017,10,26,10,46,10.90
2017,10,26,10,47,11.00
2017,10,26,10,48,11.10
2017,10,26,10,49,11.10
2017,10,26,10,50,11.20
2017,10,26,10,51,11.30
2017,10,26,10,52,11.40
2017,10,26,10,53,11.50
2017,10,26,10,54,11.60
2017,10,26,10,55,11.60
2017,10,26,10,56,11.60
2017,10,26,10,57,11.60
2017,10,26,10,58,11.60
2017,10,26,10,59,11.60
2017,10,26,11,00,11.70
2017,10,26,11,01,11.70
2017,10,26,11,02,11.70
2017,10,26,11,03,11.70
2017,10,26,11,04,11.70
2017,10,26,11,05,11.70
2017,10,26,11,06,11.60
2017,10,26,11,07,11.60
2017,10,26,11,08,11.60
2017,10,26,11,09,11.60
2017,10,26,11,10,11.60
2017,10,26,11,11,11.60
2017,10,26,11,12,11.60
2017,10,26,11,13,11.60
2017,10,26,11,14,11.70
2017,10,26,11,15,11.70
2017,10,26,11,16,11.70
2017,10,26,11,17,11.70
2017,10,26,11,18,11.70
2017,10,26,11,19,11.60
2017,10,26,11,20,11.60
2017,10,26,11,21,11.60
2017,10,26,11,22,11.60
2017,10,26,11,23,11.70
2017,10,26,11,24,11.70
2017,10,26,11,25,11.70
2017,10,26,11,26,11.70
2017,10,26,11,27,11.70
2017,10,26,11,28,11.60
2017,10,26,11,29,11.60
2017,10,26,11,30,11.60
2017,10,26,11,31,11.60
2017,10,26,11,32,11.70
2017,10,26,11,33,11.70
2017,10,26,11,34,11.60
2017,10,26,11,35,11.60
2017,10,26,11,36,11.70
2017,10,26,11,37,11.70
2017,10,26,11,38,11.70
2017,10,26,11,39,11.70
2017,10,26,11,40,11.70
2017,10,26,11,41,11.70
2017,10,26,11,42,11.70
2017,10,26,11,43,11.70
2017,10,26,11,44,11.70
2017,10,26,11,45,11.60
2017,10,26,11,46,11.60
2017,10,26,11,47,11.60
2017,10,26,11,48,11.50
2017,10,26,11,49,11.50
2017,10,26,11,50,11.50
2017,10,26,11,51,11.50
2017,10,26,11,52,11.50
2017,10,26,11,53,11.50
2017,10,26,11,54,11.50
2017,10,26,11,55,11.50
2017,10,26,11,56,11.60
2017,10,26,11,57,11.70
2017,10,26,11,58,11.80
2017,10,26,11,59,11.80
2017,10,26,12,00,11.80
2017,10,26,12,01,11.90
2017,10,26,12,02,11.90
2017,10,26,12,03,12.00
2017,10,26,12,04,12.00
2017,10,26,12,05,12.00
2017,10,26,12,06,12.10
2017,10,26,12,07,12.10
2017,10,26,12,08,12.20
2017,10,26,12,09,12.20
2017,10,26,12,10,12.30
2017,10,26,12,11,12.30
2017,10,26,12,12,12.30
2017,10,26,12,13,12.30
2017,10,26,12,14,12.30
2017,10,26,12,15,12.30
2017,10,26,12,16,12.40
2017,10,26,12,17,12.40
2017,10,26,12,18,12.40
2017,10,26,12,19,12.50
2017,10,26,12,20,12.50
2017,10,26,12,21,12.50
2017,10,26,12,22,12.40
2017,10,26,12,23,12.40
2017,10,26,12,24,12.40
2017,10,26,12,25,12.40
2017,10,26,12,26,12.40
2017,10,26,12,27,12.40
2017,10,26,12,28,12.40
2017,10,26,12,29,12.50
2017,10,26,12,30,12.60
2017,10,26,12,31,12.70
2017,10,26,12,32,12.80
2017,10,26,12,33,12.90
2017,10,26,12,34,12.90
2017,10,26,12,35,13.00
2017,10,26,12,36,13.10
2017,10,26,12,37,13.20
2017,10,26,12,38,13.20
2017,10,26,12,39,13.20
2017,10,26,12,40,13.20
2017,10,26,12,41,13.20
2017,10,26,12,42,13.20
2017,10,26,12,43,13.30
2017,10,26,12,44,13.30
2017,10,26,12,45,13.30
2017,10,26,12,46,13.30
2017,10,26,12,47,13.30
2017,10,26,12,48,13.30
2017,10,26,12,49,13.40
2017,10,26,12,50,13.30
2017,10,26,12,51,13.20
2017,10,26,12,52,13.10
2017,10,26,12,53,13.10
2017,10,26,12,54,13.10
2017,10,26,12,55,13.10
2017,10,26,12,56,13.10
2017,10,26,12,57,13.10
2017,10,26,12,58,13.10
2017,10,26,12,59,13.20
2017,10,26,13,00,13.20
2017,10,26,13,01,13.20
2017,10,26,13,02,13.30
2017,10,26,13,03,13.30
2017,10,26,13,04,13.40
2017,10,26,13,05,13.50
2017,10,26,13,06,13.60
2017,10,26,13,07,13.60
2017,10,26,13,08,13.60
2017,10,26,13,09,13.50
2017,10,26,13,10,13.50
2017,10,26,13,11,13.50
2017,10,26,13,12,13.50
2017,10,26,13,13,13.60
2017,10,26,13,14,13.60
2017,10,26,13,15,13.70
2017,10,26,13,16,13.90
2017,10,26,13,17,13.90
2017,10,26,13,18,13.90
2017,10,26,13,19,13.90
2017,10,26,13,20,14.00
2017,10,26,13,21,14.00
2017,10,26,13,22,14.00
2017,10,26,13,23,13.90
2017,10,26,13,24,13.80
2017,10,26,13,25,13.80
2017,10,26,13,26,13.80
2017,10,26,13,27,13.80
2017,10,26,13,28,13.80
2017,10,26,13,29,13.80
2017,10,26,13,30,13.90
2017,10,26,13,31,13.90
2017,10,26,13,32,13.90
2017,10,26,13,33,14.00
2017,10,26,13,34,14.00
2017,10,26,13,35,14.10
2017,10,26,13,36,14.20
2017,10,26,13,37,14.40
2017,10,26,13,38,14.60
2017,10,26,13,39,14.70
2017,10,26,13,40,14.70
2017,10,26,13,41,14.70
2017,10,26,13,42,14.70
2017,10,26,13,43,14.60
2017,10,26,13,44,14.50
2017,10,26,13,45,14.50
2017,10,26,13,46,14.50
2017,10,26,13,47,14.60
2017,10,26,13,48,14.60
2017,10,26,13,49,14.60
2017,10,26,13,50,14.50
2017,10,26,13,51,14.50
2017,10,26,13,52,14.60
2017,10,26,13,53,14.80
2017,10,26,13,54,14.90
2017,10,26,13,55,15.00
2017,10,26,13,56,15.10
2017,10,26,13,57,15.10
2017,10,26,13,58,15.20
2017,10,26,13,59,15.30
2017,10,26,14,00,15.40
2017,10,26,14,01,15.40
2017,10,26,14,02,15.50
2017,10,26,14,03,15.60
2017,10,26,14,04,15.70
2017,10,26,14,05,15.70
2017,10,26,14,06,15.80
2017,10,26,14,07,15.90
2017,10,26,14,08,15.90
2017,10,26,14,09,15.90
2017,10,26,14,10,15.90
2017,10,26,14,11,15.90
2017,10,26,14,12,16.00
2017,10,26,14,13,16.00
2017,10,26,14,14,15.90
2017,10,26,14,15,15.70
2017,10,26,14,16,15.60
2017,10,26,14,17,15.50
2017,10,26,14,18,15.40
2017,10,26,14,19,15.40
2017,10,26,14,20,15.30
2017,10,26,14,21,15.20
2017,10,26,14,22,15.20
2017,10,26,14,23,15.30
2017,10,26,14,24,15.40
2017,10,26,14,25,15.40
2017,10,26,14,26,15.40
2017,10,26,14,27,15.30
2017,10,26,14,28,15.20
2017,10,26,14,29,15.20
2017,10,26,14,30,15.20
2017,10,26,14,31,15.20
2017,10,26,14,32,15.30
2017,10,26,14,33,15.40
2017,10,26,14,34,15.40
2017,10,26,14,35,15.50
2017,10,26,14,36,15.60
2017,10,26,14,37,15.70
2017,10,26,14,38,15.80
2017,10,26,14,39,15.80
2017,10,26,14,40,15.80
2017,10,26,14,41,15.70
2017,10,26,14,42,15.70
2017,10,26,14,43,15.60
2017,10,26,14,44,15.40
2017,10,26,14,45,15.30
2017,10,26,14,46,15.10
2017,10,26,14,47,15.00
2017,10,26,14,48,14.90
2017,10,26,14,49,14.90
2017,10,26,14,50,14.90
2017,10,26,14,51,15.00
2017,10,26,14,52,15.10
2017,10,26,14,53,15.30
2017,10,26,14,54,15.30
2017,10,26,14,55,15.40
2017,10,26,14,56,15.30
2017,10,26,14,57,15.20
2017,10,26,14,58,15.30
2017,10,26,14,59,15.30
2017,10,26,15,00,15.20
2017,10,26,15,01,15.20
2017,10,26,15,02,15.10
2017,10,26,15,03,15.10
2017,10,26,15,04,15.10
2017,10,26,15,05,15.00
2017,10,26,15,06,14.90
2017,10,26,15,07,15.00
2017,10,26,15,08,15.00
2017,10,26,15,09,14.90
2017,10,26,15,10,14.80
2017,10,26,15,11,14.80
2017,10,26,15,12,14.70
2017,10,26,15,13,14.60
2017,10,26,15,14,14.60
2017,10,26,15,15,14.60
2017,10,26,15,16,14.60
2017,10,26,15,17,14.60
2017,10,26,15,18,14.50
2017,10,26,15,19,14.50
2017,10,26,15,20,14.50
2017,10,26,15,21,14.50
2017,10,26,15,22,14.40
2017,10,26,15,23,14.40
2017,10,26,15,24,14.40
2017,10,26,15,25,14.40
2017,10,26,15,26,14.40
2017,10,26,15,27,14.40
2017,10,26,15,28,14.40
2017,10,26,15,29,14.40
2017,10,26,15,30,14.40
2017,10,26,15,31,14.40
2017,10,26,15,32,14.40
2017,10,26,15,33,14.30
2017,10,26,15,34,14.40
2017,10,26,15,35,14.50
2017,10,26,15,36,14.60
2017,10,26,15,37,14.60
2017,10,26,15,38,14.60
2017,10,26,15,39,14.70
2017,10,26,15,40,14.70
2017,10,26,15,41,14.70
2017,10,26,15,42,14.60
2017,10,26,15,43,14.60
2017,10,26,15,44,14.50
2017,10,26,15,45,14.50
2017,10,26,15,46,14.40
2017,10,26,15,47,14.40
2017,10,26,15,48,14.40
2017,10,26,15,49,14.40
2017,10,26,15,50,14.40
2017,10,26,15,51,14.40
2017,10,26,15,52,14.40
2017,10,26,15,53,14.30
2017,10,26,15,54,14.30
2017,10,26,15,55,14.20
2017,10,26,15,56,14.10
2017,10,26,15,57,14.10
2017,10,26,15,58,14.10
2017,10,26,15,59,14.10
2017,10,26,16,00,14.10
2017,10,26,16,01,14.20
2017,10,26,16,02,14.20
2017,10,26,16,03,14.20
2017,10,26,16,04,14.20
2017,10,26,16,05,14.20
2017,10,26,16,06,14.30
2017,10,26,16,07,14.30
2017,10,26,16,08,14.30
2017,10,26,16,09,14.30
2017,10,26,16,10,14.20
2017,10,26,16,11,14.20
2017,10,26,16,12,14.10
2017,10,26,16,13,14.10
2017,10,26,16,14,14.10
2017,10,26,16,15,14.00
2017,10,26,16,16,14.10
2017,10,26,16,17,14.20
2017,10,26,16,18,14.20
2017,10,26,16,19,14.20
2017,10,26,16,20,14.20
2017,10,26,16,21,14.20
2017,10,26,16,22,14.10
2017,10,26,16,23,14.10
2017,10,26,16,24,14.10
2017,10,26,16,25,14.10
2017,10,26,16,26,14.00
2017,10,26,16,27,14.00
2017,10,26,16,28,13.90
2017,10,26,16,29,13.90
2017,10,26,16,30,13.90
2017,10,26,16,31,13.90
2017,10,26,16,32,14.00
2017,10,26,16,33,14.00
2017,10,26,16,34,14.00
2017,10,26,16,35,14.00
2017,10,26,16,36,14.00
2017,10,26,16,37,13.90
2017,10,26,16,38,13.90
2017,10,26,16,39,13.90
2017,10,26,16,40,13.80
2017,10,26,16,41,13.80
2017,10,26,16,42,13.80
2017,10,26,16,43,13.70
2017,10,26,16,44,13.70
2017,10,26,16,45,13.70
2017,10,26,16,46,13.60
2017,10,26,16,47,13.60
2017,10,26,16,48,13.60
2017,10,26,16,49,13.60
2017,10,26,16,50,13.50
2017,10,26,16,51,13.50
2017,10,26,16,52,13.40
2017,10,26,16,53,13.30
2017,10,26,16,54,13.30
2017,10,26,16,55,13.20
2017,10,26,16,56,13.20
2017,10,26,16,57,13.10
2017,10,26,16,58,13.10
2017,10,26,16,59,13.00
2017,10,26,17,00,12.90
2017,10,26,17,01,12.80
2017,10,26,17,02,12.80
2017,10,26,17,03,12.70
2017,10,26,17,04,12.70
2017,10,26,17,05,12.60
2017,10,26,17,06,12.50
2017,10,26,17,07,12.40
2017,10,26,17,08,12.40
2017,10,26,17,09,12.40
2017,10,26,17,10,12.40
2017,10,26,17,11,12.40
2017,10,26,17,12,12.40
2017,10,26,17,13,12.30
2017,10,26,17,14,12.30
2017,10,26,17,15,12.30
2017,10,26,17,16,12.30
2017,10,26,17,17,12.30
2017,10,26,17,18,12.30
2017,10,26,17,19,12.30
2017,10,26,17,20,12.30
2017,10,26,17,21,12.20
2017,10,26,17,22,12.20
2017,10,26,17,23,12.20
2017,10,26,17,24,12.20
2017,10,26,17,25,12.20
2017,10,26,17,26,12.20
2017,10,26,17,27,12.10
2017,10,26,17,28,12.10
2017,10,26,17,29,12.10
2017,10,26,17,30,12.10
2017,10,26,17,31,12.00
2017,10,26,17,32,12.00
2017,10,26,17,33,12.00
2017,10,26,17,34,11.90
2017,10,26,17,35,11.90
2017,10,26,17,36,11.90
2017,10,26,17,37,11.80
2017,10,26,17,38,11.80
2017,10,26,17,39,11.80